Погода в Хебде

Россия / Республика Дагестан     42°26′42″N   46°33′01″E
темп.,
°C
ветер,
м/с
пор.,
м/с
влажн.,
%
обл.,
%
осадки,
мм/ч
давл.,
гПа
погр.,
м
5 августа, чт
чт500:00+12юз228563 1.3 102122
03:00+12юз228163 3.3 102020
06:00+13юз228136 1.9 102030
09:00+19с11555 2.1 1018788
12:00+20св225445 1.7 10171017
15:00+20ссв215871 3.7 10161192
18:00+12вюв4596100 13.5 1021200
21:00+12юз3386100 17.8 102054
6 августа, пт
пт600:00+11юз327414 0.0 101920
03:00+11юз32700 0.0 101820
06:00+12ююз32700 0.0 101730
09:00+20ю11440 0.0 1015796
12:00+23св33414 0.0 10131950
15:00+22всв32489 0.0 10121404
18:00+20вюв21640 0.0 101218
21:00+14ююз33570 0.0 101427
7 августа, сб
сб700:00+13ююз43520 0.0 101530
03:00+12ююз43562 0.0 101430
06:00+13ююз33640 0.0 101439
09:00+21ююз22370 0.0 1011612
12:00+25вюв133211 0.0 10081887
15:00+25юв233532 0.0 10081992
18:00+22ю22560 0.0 100916
21:00+16ююз435583 0.0 101332
8 августа, вс
вс800:00+15ююз43527 0.0 101437
03:00+15ююз335398 0.0 101335
06:00+15юз3262100 0.0 101331
09:00+22ссз11455 0.0 1012639
12:00+24св334767 0.0 10121145
15:00+23всв225217 0.3 10131218
18:00+20юв116881 0.8 101416
21:00+16юз117917 2.0 101711
9 августа, пн
пн900:00+14юз22752 0.1 101813
03:00+14юз11720 0.1 101811
06:00+15ююз22732 0.0 101818
09:00+21в2255100 0.1 1016543
12:00+22св23538 0.4 10161180
15:00+22всв226033 2.8 1016845
18:00+20в117448 3.8 101725
21:00+15юз2281100 6.9 101911